Regional Weather Roundup
Issued by NWS

Home | Current Version | Previous Version | Text Only | Print | Product List | Glossary Off
Versions: 1 2 3 4 5 6 7 8 9 10 11 12 13 14 15 16 17 18 19 20 21 22 23 24 25 26 27 28 29 30 31 32 33 34 35 36 37 38 39 40 41 42 43 44 45 46 47 48 49 50

651
ASUS45 KSLC 062310
RWRUT

UTAH REGIONAL WEATHER ROUNDUP
NATIONAL WEATHER SERVICE SALT LAKE CITY UT
400 PM MST SAT FEB 06 2016

UTZ001>011-023>025-070000-

NORTHERN UTAH

CITY           SKY/WX    TMP DP  RH WIND       PRES   REMARKS
BRIGHAM CITY   PTSUNNY   30  22  72 CALM      30.47F
HILL AFB       CLOUDY    34  19  54 SW1       30.44S
LOGAN          PTSUNNY   30  24  78 CALM      30.45S
OGDEN          PTSUNNY   34  25  69 CALM      30.45S
PROVO AIRPORT  PTSUNNY   25  18  74 CALM      30.48S
SALT LAKE CITY CLOUDY    37  25  61 NW6       30.46S WCI  32
VERNAL         CLOUDY    20  10  65 CALM      30.44F
WENDOVER       SUNNY     36  25  64 SE3       30.46S
HEBER CITY     PTSUNNY   27  16  63 CALM      30.42S
WEST JORDAN    SUNNY     34  23  64 S3        30.45F

$$

UTZ012>022-026-027-070000-

SOUTHERN/CENTRAL UTAH

CITY           SKY/WX    TMP DP  RH WIND       PRES   REMARKS
BLANDING       SUNNY     35  21  57 S5        30.49S WCI  31
BRYCE CANYON   SUNNY     31  16  54 CALM      30.41S
CEDAR CITY     SUNNY     33  22  63 NE6       30.41R WCI  28
DELTA          MOSUNNY   20  19  95 CALM      30.47S
HANKSVILLE     CLOUDY    23  18  80 CALM      30.55F
MILFORD        SUNNY     16  12  84 SW9       30.42F WCI   4
MOAB/CYNLANDS  SUNNY     20  15  81 NW9       30.50F WCI   9
PRICE          SUNNY     26  14  60 S3        30.43F
ST GEORGE      MOCLDY    54  23  30 NW3       30.39S
KANAB          SUNNY     48  23  37 E12       30.41F

$$

REGIONAL REPORTS     COLORADO/ARIZONA

CITY           SKY/WX    TMP DP  RH WIND       PRES   REMARKS
CRAIG, CO      CLOUDY    20  12  71 CALM      30.38F
GRAND JUNCTION SUNNY     21  14  74 NW7       30.48F WCI  12
RIFLE          SUNNY     27  10  49 SE3       30.45S
MONTROSE       SUNNY     30  14  51 CALM      30.45F
CORTEZ         SUNNY     37  17  44 SW3       30.40F
PAGE, AZ       SUNNY     41  23  48 N8        30.44F
GRAND CANYON   SUNNY     47  18  31 NE8       30.40R
KINGMAN        SUNNY     59  17  19 N10       30.31F
FLAGSTAFF      SUNNY     43  14  31 NE9       30.38R

$$

REGIONAL REPORTS    NEVADA/IDAHO/WYOMING

CITY           SKY/WX    TMP DP  RH WIND       PRES   REMARKS
LAS VEGAS, NV  MOSUNNY   61  22  22 N6        30.30F
ELY            SUNNY     35  24  64 E3        30.41F
ELKO           SUNNY     28  16  60 SW3       30.45F
POCATELLO, ID  CLOUDY    38  25  59 S16       30.36R WCI  29
BURLEY         PTSUNNY   46  28  49 SW12      30.37F
EVANSTON, WY   CLOUDY    30  17  58 SW22      30.36S WCI  17
ROCK SPRINGS   CLOUDY    31  19  61 W36G41    30.26R WCI  15

$$




USA.gov is the U.S. government's official web portal to all federal, state and local government web resources and services.